Location: *
(2.5500°S, 65.9667°W)
Time: 01:54:01
(UTC+00:00)

DELTA-4 R/B - Visible Passes

Search period start: 22 May 2022 00:00
Search period end: 01 June 2022 00:00
Orbit: 467 x 34485 km, 13.6° (Epoch: 21 May)

Date Brightness Start Highest point End Pass type
(mag) Time Alt. Az. Time Alt. Az. Time Alt. Az.
22 May 8.1 03:15:35 10° WSW 05:06:57 77° WSW 12:48:16 10° ENE visible
22 May 6.7 23:23:00 10° WSW 23:34:36 63° SSE 08:53:56 10° ENE visible
24 May 9.4 06:50:13 10° W 08:10:57 24° W 10:58:19 10° W visible
25 May 8.2 02:29:59 10° WSW 04:34:58 87° SW 12:04:05 10° ENE visible
25 May 6.2 22:39:03 10° WSW 22:48:00 59° S 08:06:58 10° ENE visible
27 May 6.0 05:54:10 10° W 07:26:57 34° W 15:08:25 10° ENE visible
28 May 8.1 01:44:49 10° WSW 02:38:54 81° SSE 11:19:37 10° ENE visible
28 May 5.8 21:55:07 10° WSW 22:02:06 54° S 07:18:40 10° ENE visible
30 May 6.6 05:02:38 10° WSW 06:42:13 44° W 14:24:28 10° ENE visible
31 May 7.9 00:59:55 10° WSW 01:31:58 77° SSE 10:34:48 10° ENE visible
